COSMOS 2251 DEB, 40799

Orbit data source: Space-Track

COSMOS 2251 DEB, 40799 is space debris in LEO originally from a launch on Wed, 16 Jun 1993 UTC launched from the Plesetsk Missile And Space Complex (PKMTR). The debris from Iridium 33, an American commercial communications satellite, has been tracked extensively since its accidental collision with the defunct Russian satellite Cosmos 2251 in 2009. This event, occurring at high speed in low Earth orbit (LEO), generated thousands of pieces of space debris, significantly increasing the risk of further collisions. The Iridium 33 debris cloud has impacted space traffic management and orbital debris mitigation strategies, making it a subject of ongoing study in space situational awareness.

Loading next visibility...
Identifier
40799, 1993-036BWC
Orbit
LEO
Country
Flag of CISCIS
Related business
Manufacturer
Unknown
Mission
Spacecraft
Bus & Motor
Unknown
Mass
Unknown
Launch date (UTC)
1993-06-16 (32 years ago)
Launch vehicle
Unknown
Launch site
Plesetsk Missile And Space Complex (PKMTR)
Object type
Payload
Rocket body
Debris
Shape & HBR
Unknown shape, 0.1 m
Radar Cross Section
Small (<0.1 m²)

Expand to show TLE details & history
Last TLE update: 5 hours ago

TLE from 5 hours ago
0 COSMOS 2251 DEB
1 40799U 93036BWC 25342.61095317  .00006894  00000-0  52701-3 0  9993
2 40799  73.9255 106.7691 0118821 349.6655  10.2086 14.96605694499156
Epoch: 2025-12-08T14:39Z
TLE epoch observation values (Epoch: 2025-12-08T14:39:46.353Z)
Latitude
-0.00005°
Longitude
169.21844°
Altitude
498.751 km
Speed
7.66 km/s
True Right ascension
07h 07m 04s
True Declination
0° 00' 00"
Sunlit
Object was in full shadow at epoch
Visualization orbit readout
Latitude
Unknown
Longitude
Unknown
Altitude
Unknown
Speed
Unknown
Apparent Right ascension
Unknown
Apparent Declination
Unknown
Sunlit
N/A
Visualization observer readout
Local Sidereal Time
18:14:12
Azimuth
Unknown
Elevation
Unknown
Doppler factor
Unknown
Orbital elements
Apogee altitude
657.577 km
Perigee altitude
492.343 km
Semi-major axis
6,953.097 km
Eccentricity
0.01188
Inclination
73.9255°
RAAN
106.7691°
Arg. of periapsis
349.6655°
True anomaly
10.45349°
Mean anomaly
10.2086°
Eccentric anomaly
10.33069°
Mean motion
3.74348 °/min
Orbital period
96.17 mins
BSTAR
0.00052701
Loading maneuver chart data...
Computing Atmospheric mass density...

Documentation

Showing up to 5 results
|